CW9533 Torre Faro Messina IT current weather conditions

sailwx.info

Wind from 146 at 0 knots gusting 3

Air temperature 23.3° C
Dewpoint 12.9° C

Last reported at 2016-Jun-30 03:43 UTC.
Time now 2016-Jun-30 05:08 UTC

Location: N 38°16' E 015°39'.
View on Google Maps.

See reports from other nearby stations

  
Tides and Currents Weather Stations Pressure Air Temp Water Temp Dewpoint Dewpoint Depression Visibility Wind Speed Wind Dir Waves Ship Positions
date/time (UTC)wind fromknots sea level pressurealtimeterstation pressurevisibilityair tempwater tempwave heightnotes
2016-Jun-30 03:43 146 0 gusting 3 23.3
2016-Jun-30 03:27 146 0 gusting 2 23.3
2016-Jun-30 03:12 146 1 gusting 4 23.3
2016-Jun-30 02:57 146 0 gusting 5 22.8
2016-Jun-30 02:42 146 22.8
2016-Jun-30 02:27 146 0 gusting 3 22.8
2016-Jun-30 02:12 146 22.8
2016-Jun-30 01:57 146 2 gusting 5 22.8
2016-Jun-30 01:42 146 1 gusting 5 22.8
2016-Jun-30 01:27 146 3 gusting 6 22.8
2016-Jun-30 01:12 146 4 gusting 7 22.8
2016-Jun-30 00:57 146 3 gusting 8 22.8
2016-Jun-30 00:42 146 3 gusting 7 22.8
2016-Jun-30 00:27 146 3 gusting 6 22.8
2016-Jun-30 00:12 146 4 gusting 7 23.3
2016-Jun-29 23:57 146 3 gusting 6 22.8
2016-Jun-29 23:42 146 3 gusting 7 23.3
2016-Jun-29 23:27 146 4 gusting 6 23.3
2016-Jun-29 23:12 146 3 gusting 7 23.3
2016-Jun-29 22:57 146 2 gusting 8 23.3
2016-Jun-29 22:42 146 3 gusting 7 23.3
2016-Jun-29 22:27 146 3 gusting 7 23.3
2016-Jun-29 22:12 146 3 gusting 6 23.3
2016-Jun-29 21:57 146 4 gusting 7 23.3
2016-Jun-29 21:42 146 4 gusting 6 23.3
2016-Jun-29 21:27 146 3 gusting 6 23.3
2016-Jun-29 21:12 146 4 gusting 7 22.8
2016-Jun-29 20:57 146 4 gusting 8 23.3
2016-Jun-29 20:42 146 3 gusting 7 23.3
2016-Jun-29 20:27 146 5 gusting 8 23.9
2016-Jun-29 20:12 146 3 gusting 6 23.9
2016-Jun-29 19:57 146 2 gusting 6 23.9
2016-Jun-29 19:42 146 3 gusting 6 23.9
2016-Jun-29 19:27 146 2 gusting 6 23.9
2016-Jun-29 19:12 146 4 gusting 8 23.9
2016-Jun-29 18:57 146 3 gusting 6 24.4
2016-Jun-29 18:42 146 2 gusting 6 24.4
2016-Jun-29 18:27 146 3 gusting 6 24.4
2016-Jun-29 18:12 146 2 gusting 7 24.4
2016-Jun-29 17:57 146 2 gusting 6 24.4
2016-Jun-29 17:42 146 3 gusting 7 24.4
2016-Jun-29 17:27 146 3 gusting 8 25.0
2016-Jun-29 17:12 146 5 gusting 10 24.4
2016-Jun-29 16:57 146 6 gusting 9 25.0
2016-Jun-29 16:42 146 2 gusting 11 25.0
2016-Jun-29 16:27 146 3 gusting 10 25.0
2016-Jun-29 16:12 146 4 gusting 12 25.0
2016-Jun-29 15:57 146 6 gusting 13 25.0
2016-Jun-29 15:42 146 4 gusting 13 25.6
2016-Jun-29 15:27 146 6 gusting 13 25.6
2016-Jun-29 15:12 146 6 gusting 12 25.6
2016-Jun-29 14:57 146 7 gusting 13 25.6
2016-Jun-29 14:42 146 6 gusting 13 25.6
2016-Jun-29 14:27 146 6 gusting 13 25.0
2016-Jun-29 14:12 146 7 gusting 13 25.0
2016-Jun-29 13:57 146 10 gusting 17 25.0
2016-Jun-29 13:42 146 6 gusting 14 25.6
2016-Jun-29 13:27 146 8 gusting 15 25.6
2016-Jun-29 13:12 146 5 gusting 13 25.6
2016-Jun-29 12:57 146 6 gusting 13 25.0
2016-Jun-29 12:42 146 8 gusting 14 25.0
2016-Jun-29 12:27 146 6 gusting 13 25.0
2016-Jun-29 12:12 146 10 gusting 13 25.0
2016-Jun-29 11:57 146 8 gusting 15 25.0
2016-Jun-29 11:42 146 7 gusting 13 25.6
2016-Jun-29 11:27 146 7 gusting 15 25.6
2016-Jun-29 11:12 146 6 gusting 14 25.6
2016-Jun-29 10:57 146 9 gusting 16 25.6
2016-Jun-29 10:42 146 6 gusting 13 25.6
2016-Jun-29 10:27 146 6 gusting 15 25.6
2016-Jun-29 10:12 146 7 gusting 14 26.1
2016-Jun-29 09:57 146 6 gusting 13 26.1
2016-Jun-29 09:42 146 2 gusting 13 26.7
2016-Jun-29 09:26 146 6 gusting 13 26.1
2016-Jun-29 09:11 146 6 gusting 13 26.1
2016-Jun-29 08:56 146 4 gusting 14 25.6
2016-Jun-29 08:41 146 6 gusting 11 25.0
2016-Jun-29 08:26 146 5 gusting 11 25.0
2016-Jun-29 08:11 146 5 gusting 11 25.0
2016-Jun-29 07:56 146 3 gusting 11 24.4
2016-Jun-29 07:41 146 6 gusting 11 25.0
2016-Jun-29 07:26 146 6 gusting 10 24.4
2016-Jun-29 07:11 146 6 gusting 11 24.4
2016-Jun-29 06:56 146 2 gusting 6 24.4
2016-Jun-29 06:41 146 6 gusting 13 23.9
2016-Jun-29 06:26 146 4 gusting 8 23.9
2016-Jun-29 06:11 146 6 gusting 9 23.9
2016-Jun-29 05:56 146 2 gusting 7 23.9
2016-Jun-29 05:41 146 4 gusting 9 23.3
2016-Jun-29 05:26 146 2 gusting 7 23.3
2016-Jun-29 05:11 146 4 gusting 10 22.8
2016-Jun-29 04:56 146 3 gusting 7 22.8
2016-Jun-29 04:41 146 3 gusting 7 22.8
2016-Jun-29 04:26 146 4 gusting 7 22.8
2016-Jun-29 04:11 146 4 gusting 8 22.8
2016-Jun-29 03:56 146 4 gusting 7 22.8
2016-Jun-29 03:41 146 4 gusting 9 22.8
2016-Jun-29 03:26 146 3 gusting 9 22.8
2016-Jun-29 03:11 146 5 gusting 8 22.8
2016-Jun-29 02:56 146 4 gusting 7 22.8
2016-Jun-29 02:41 146 3 gusting 8 22.8
2016-Jun-29 02:26 146 3 gusting 6 22.8
2016-Jun-29 02:11 146 3 gusting 8 22.8
2016-Jun-29 01:56 146 3 gusting 8 22.8
2016-Jun-29 01:41 146 4 gusting 9 22.8
2016-Jun-29 01:26 146 6 gusting 10 22.8
2016-Jun-29 01:11 146 4 gusting 7 22.8
2016-Jun-29 00:56 146 5 gusting 8 22.8
2016-Jun-29 00:41 146 6 gusting 13 22.8
2016-Jun-29 00:26 146 5 gusting 10 22.8
2016-Jun-29 00:11 146 4 gusting 8 22.8
2016-Jun-28 23:56 146 5 gusting 10 23.3
2016-Jun-28 23:41 146 4 gusting 10 23.3
2016-Jun-28 23:26 146 4 gusting 12 23.3
2016-Jun-28 23:11 146 5 gusting 12 23.3
2016-Jun-28 22:56 146 7 gusting 15 23.3
2016-Jun-28 22:41 146 7 gusting 13 23.3
2016-Jun-28 22:25 146 5 gusting 7 23.3
2016-Jun-28 22:10 146 4 gusting 7 23.3
2016-Jun-28 21:55 146 2 gusting 8 23.3
2016-Jun-28 21:41 146 5 gusting 9 23.3
2016-Jun-28 21:25 146 5 gusting 9 23.3
2016-Jun-28 21:10 146 6 gusting 10 23.3
2016-Jun-28 20:55 146 4 gusting 9 23.9
2016-Jun-28 20:40 146 6 gusting 9 23.9
2016-Jun-28 20:25 146 6 gusting 11 23.9
2016-Jun-28 20:10 146 4 gusting 10 23.9
2016-Jun-28 19:55 146 4 gusting 10 23.9
2016-Jun-28 19:40 146 4 gusting 8 23.9
2016-Jun-28 19:25 146 6 gusting 11 23.9
2016-Jun-28 19:10 146 5 gusting 10 23.9
2016-Jun-28 18:55 146 5 gusting 10 23.9
2016-Jun-28 18:40 146 4 gusting 9 24.4
2016-Jun-28 18:25 146 5 gusting 12 24.4
2016-Jun-28 18:10 146 5 gusting 9 24.4
2016-Jun-28 17:55 146 5 gusting 13 24.4
2016-Jun-28 17:40 146 6 gusting 13 25.0
2016-Jun-28 17:25 146 6 gusting 10 25.0
2016-Jun-28 17:10 146 5 gusting 9 25.6
2016-Jun-28 16:55 146 5 gusting 11 26.1
2016-Jun-28 16:40 146 6 gusting 13 26.1
2016-Jun-28 16:25 146 4 gusting 10 26.1
2016-Jun-28 16:10 146 6 gusting 11 26.1
2016-Jun-28 15:55 146 2 gusting 11 26.1
2016-Jun-28 15:40 146 4 gusting 13 26.1
2016-Jun-28 15:25 146 4 gusting 13 26.1
2016-Jun-28 15:10 146 6 gusting 13 26.1
2016-Jun-28 14:56 146 6 gusting 12 26.7
2016-Jun-28 14:40 146 6 gusting 11 26.7
2016-Jun-28 14:25 146 7 gusting 13 27.2
2016-Jun-28 14:10 146 5 gusting 13 27.2
2016-Jun-28 13:55 146 4 gusting 12 27.2
2016-Jun-28 13:40 146 5 gusting 14 27.2
2016-Jun-28 13:25 146 4 gusting 13 26.7
2016-Jun-28 13:10 146 7 gusting 13 26.7
2016-Jun-28 12:55 146 6 gusting 13 26.1
2016-Jun-28 12:40 146 6 gusting 13 26.1
2016-Jun-28 12:25 146 6 gusting 12 26.1
2016-Jun-28 12:10 146 4 gusting 12 26.1
2016-Jun-28 11:55 146 6 gusting 13 25.6
2016-Jun-28 11:40 146 6 gusting 15 26.1
2016-Jun-28 11:25 146 5 gusting 13 26.7
2016-Jun-28 11:10 147 4 gusting 12 27.2
2016-Jun-28 10:55 144 6 gusting 13 27.2
2016-Jun-28 10:40 145 4 gusting 13 27.2
2016-Jun-28 10:25 145 8 gusting 14 26.7
2016-Jun-28 10:10 144 12 gusting 16 26.7
2016-Jun-28 09:55 144 6 gusting 13 26.7
2016-Jun-28 09:40 144 6 gusting 13 26.1
2016-Jun-28 09:25 144 6 gusting 13 26.7
2016-Jun-28 09:10 144 6 gusting 14 26.1
2016-Jun-28 08:55 148 9 gusting 15 26.1
2016-Jun-28 08:40 145 8 gusting 15 26.1
2016-Jun-28 08:25 145 7 gusting 13 25.6
2016-Jun-28 08:10 144 8 gusting 13 25.6
2016-Jun-28 07:55 171 4 gusting 12 25.6
2016-Jun-28 07:40 146 5 gusting 15 25.6
2016-Jun-28 07:25 146 5 gusting 13 25.0
2016-Jun-28 07:10 146 6 gusting 12 25.0
2016-Jun-28 06:55 146 5 gusting 11 25.0
2016-Jun-28 06:40 146 6 gusting 13 25.0
2016-Jun-28 06:24 146 4 gusting 8 25.0
2016-Jun-28 06:10 146 2 gusting 8 24.4
2016-Jun-28 05:54 146 5 gusting 12 24.4
2016-Jun-28 05:39 146 2 gusting 7 23.9
2016-Jun-28 05:24 146 4 gusting 11 23.9
2016-Jun-28 05:09 146 3 gusting 9 23.9